EN

Hourly Weather Ocieszyn

Today, 16 May, Sunday

Time Temperature Precipitation Wind Pressure Humidity
00:00 +11°C° 0 mm 3 mps 738 mmHg 90%
01:00 +12°C° 0 mm 2 mps 738 mmHg 90%
02:00 +10°C° 0 mm 2 mps 737 mmHg 91%
03:00 +10°C° 0 mm 2 mps 737 mmHg 92%
04:00 +10°C° 0 mm 2 mps 737 mmHg 93%
05:00 +11°C° 0 mm 3 mps 737 mmHg 89%
06:00 +13°C° 0 mm 3 mps 737 mmHg 84%
07:00 +14°C° 0 mm 3 mps 737 mmHg 79%
08:00 +16°C° 0.1 mm 3 mps 737 mmHg 77%
09:00 +17°C° 0.1 mm 3 mps 737 mmHg 74%
10:00 +17°C° 0.1 mm 3 mps 737 mmHg 71%
11:00 +17°C° 0.6 mm 3 mps 737 mmHg 74%
12:00 +17°C° 0.6 mm 4 mps 737 mmHg 77%
13:00 +15°C° 0.6 mm 4 mps 737 mmHg 79%
14:00 +15°C° 0.3 mm 4 mps 737 mmHg 81%
15:00 +14°C° 0.3 mm 4 mps 737 mmHg 83%
16:00 +14°C° 0.3 mm 4 mps 737 mmHg 85%
17:00 +13°C° 0.1 mm 3 mps 737 mmHg 88%
18:00 +13°C° 0.1 mm 2 mps 737 mmHg 90%
19:00 +12°C° 0.1 mm 1 mps 737 mmHg 93%
20:00 +12°C° 0 mm 2 mps 737 mmHg 93%
21:00 +10°C° 0 mm 2 mps 737 mmHg 93%
22:00 +9°C° 0 mm 2 mps 737 mmHg 93%
23:00 +9°C° 0 mm 2 mps 737 mmHg 93%

Tomorrow, 17 May, Monday

Time Temperature Precipitation Wind Pressure Humidity
00:00 +9°C° 0 mm 2 mps 737 mmHg 92%
01:00 +8°C° 0 mm 2 mps 737 mmHg 92%
02:00 +8°C° 0 mm 2 mps 737 mmHg 92%
03:00 +8°C° 0 mm 2 mps 737 mmHg 92%
04:00 +9°C° 0 mm 1 mps 737 mmHg 92%
05:00 +9°C° 0 mm 2 mps 737 mmHg 88%
06:00 +12°C° 0 mm 2 mps 737 mmHg 84%
07:00 +14°C° 0 mm 2 mps 737 mmHg 80%
08:00 +14°C° 0 mm 3 mps 737 mmHg 75%
09:00 +17°C° 0 mm 4 mps 737 mmHg 70%
10:00 +18°C° 0 mm 4 mps 737 mmHg 64%
11:00 +18°C° 0 mm 4 mps 736 mmHg 63%
12:00 +19°C° 0 mm 4 mps 736 mmHg 62%
13:00 +19°C° 0 mm 5 mps 735 mmHg 60%
14:00 +17°C° 0.4 mm 5 mps 735 mmHg 67%
15:00 +16°C° 0.4 mm 5 mps 735 mmHg 74%
16:00 +15°C° 0.4 mm 5 mps 735 mmHg 81%
17:00 +14°C° 1 mm 4 mps 735 mmHg 86%
18:00 +12°C° 1 mm 4 mps 735 mmHg 91%
19:00 +11°C° 1 mm 3 mps 735 mmHg 96%
20:00 +10°C° 0.9 mm 4 mps 735 mmHg 95%
21:00 +9°C° 0.9 mm 5 mps 735 mmHg 95%
22:00 +9°C° 0.9 mm 6 mps 735 mmHg 94%
23:00 +8°C° 0.2 mm 6 mps 735 mmHg 94%

Day after tomorrow, 18 May, Tuesday

Time Temperature Precipitation Wind Pressure Humidity
00:00 +8°C° 0.2 mm 6 mps 735 mmHg 94%
01:00 +8°C° 0.2 mm 5 mps 735 mmHg 94%
02:00 +8°C° 0.1 mm 6 mps 736 mmHg 94%
03:00 +8°C° 0.1 mm 6 mps 736 mmHg 95%
04:00 +8°C° 0.1 mm 7 mps 736 mmHg 95%
05:00 +8°C° 0.2 mm 7 mps 736 mmHg 94%
06:00 +8°C° 0.2 mm 7 mps 737 mmHg 93%
07:00 +8°C° 0.2 mm 7 mps 737 mmHg 91%
08:00 +9°C° 0.2 mm 7 mps 737 mmHg 87%
09:00 +10°C° 0.2 mm 7 mps 737 mmHg 83%
10:00 +11°C° 0.2 mm 8 mps 738 mmHg 78%
11:00 +12°C° 0.3 mm 8 mps 738 mmHg 75%
12:00 +13°C° 0.3 mm 8 mps 738 mmHg 72%
13:00 +13°C° 0.3 mm 8 mps 738 mmHg 68%
14:00 +14°C° 0.3 mm 7 mps 738 mmHg 72%
15:00 +12°C° 0.3 mm 7 mps 738 mmHg 75%
16:00 +13°C° 0.3 mm 6 mps 738 mmHg 79%
17:00 +11°C° 0.1 mm 6 mps 738 mmHg 81%
18:00 +12°C° 0.1 mm 5 mps 738 mmHg 83%
19:00 +10°C° 0.1 mm 5 mps 738 mmHg 86%
20:00 +9°C° 0 mm 5 mps 739 mmHg 88%
21:00 +8°C° 0 mm 4 mps 739 mmHg 91%
22:00 +8°C° 0 mm 4 mps 739 mmHg 94%
23:00 +7°C° 0.1 mm 4 mps 740 mmHg 94%

19 May, Wednesday

Time Temperature Precipitation Wind Pressure Humidity
00:00 +7°C° 0.1 mm 5 mps 740 mmHg 95%
01:00 +7°C° 0.1 mm 5 mps 740 mmHg 95%
02:00 +7°C° 0 mm 5 mps 740 mmHg 96%
03:00 +7°C° 0 mm 5 mps 740 mmHg 96%
04:00 +6°C° 0 mm 5 mps 740 mmHg 96%
05:00 +7°C° 0 mm 5 mps 741 mmHg 93%
06:00 +8°C° 0 mm 6 mps 741 mmHg 90%
07:00 +10°C° 0 mm 6 mps 741 mmHg 86%
08:00 +10°C° 0.1 mm 6 mps 742 mmHg 83%
09:00 +10°C° 0.1 mm 6 mps 742 mmHg 81%
10:00 +11°C° 0.1 mm 6 mps 742 mmHg 78%
11:00 +11°C° 0.1 mm 6 mps 742 mmHg 74%
12:00 +13°C° 0.1 mm 6 mps 743 mmHg 71%
13:00 +14°C° 0.1 mm 6 mps 743 mmHg 67%
14:00 +13°C° 0.2 mm 5 mps 743 mmHg 72%
15:00 +12°C° 0.2 mm 5 mps 743 mmHg 78%
16:00 +12°C° 0.2 mm 4 mps 743 mmHg 83%
17:00 +11°C° 0.3 mm 4 mps 743 mmHg 85%
18:00 +10°C° 0.3 mm 3 mps 744 mmHg 88%
19:00 +10°C° 0.3 mm 3 mps 744 mmHg 90%
20:00 +9°C° 0 mm 3 mps 744 mmHg 92%
21:00 +8°C° 0 mm 3 mps 744 mmHg 93%
22:00 +8°C° 0 mm 2 mps 745 mmHg 95%
23:00 +7°C° 0 mm 2 mps 745 mmHg 94%

20 May, Thursday

Time Temperature Precipitation Wind Pressure Humidity
00:00 +7°C° 0 mm 2 mps 745 mmHg 94%
01:00 +7°C° 0 mm 2 mps 745 mmHg 94%
02:00 +6°C° 0 mm 2 mps 745 mmHg 94%
03:00 +6°C° 0 mm 2 mps 745 mmHg 94%
04:00 +5°C° 0 mm 2 mps 745 mmHg 93%
05:00 +7°C° 0 mm 3 mps 746 mmHg 90%
06:00 +8°C° 0 mm 4 mps 746 mmHg 86%
07:00 +10°C° 0 mm 4 mps 746 mmHg 82%
08:00 +12°C° 0.1 mm 5 mps 746 mmHg 76%
09:00 +13°C° 0.1 mm 5 mps 746 mmHg 70%
10:00 +14°C° 0.1 mm 5 mps 746 mmHg 63%
11:00 +15°C° 0.2 mm 5 mps 746 mmHg 61%
12:00 +15°C° 0.2 mm 5 mps 745 mmHg 59%
13:00 +16°C° 0.2 mm 5 mps 745 mmHg 56%
14:00 +17°C° 0.2 mm 4 mps 745 mmHg 58%
15:00 +17°C° 0.2 mm 4 mps 745 mmHg 60%
16:00 +17°C° 0.2 mm 4 mps 745 mmHg 62%
17:00 +14°C° 0.1 mm 3 mps 745 mmHg 67%
18:00 +14°C° 0.1 mm 2 mps 744 mmHg 72%
19:00 +13°C° 0.1 mm 1 mps 744 mmHg 77%
20:00 +12°C° 0 mm 2 mps 744 mmHg 78%
21:00 +12°C° 0 mm 2 mps 744 mmHg 79%
22:00 +10°C° 0 mm 2 mps 744 mmHg 80%
23:00 +10°C° 0.1 mm 2 mps 744 mmHg 82%

21 May, Friday

Time Temperature Precipitation Wind Pressure Humidity
00:00 +10°C° 0.1 mm 2 mps 743 mmHg 83%
01:00 +10°C° 0.1 mm 2 mps 743 mmHg 84%
02:00 +10°C° 0.1 mm 3 mps 743 mmHg 85%
03:00 +10°C° 0.1 mm 3 mps 742 mmHg 86%
04:00 +10°C° 0.1 mm 3 mps 742 mmHg 87%
05:00 +10°C° 0 mm 5 mps 741 mmHg 82%
06:00 +11°C° 0 mm 6 mps 741 mmHg 77%
07:00 +14°C° 0 mm 7 mps 741 mmHg 72%
08:00 +15°C° 0 mm 7 mps 741 mmHg 68%
09:00 +17°C° 0 mm 7 mps 741 mmHg 64%
10:00 +18°C° 0 mm 7 mps 741 mmHg 60%
11:00 +17°C° 0.3 mm 8 mps 742 mmHg 64%
12:00 +16°C° 0.3 mm 8 mps 742 mmHg 67%
13:00 +13°C° 0.3 mm 9 mps 743 mmHg 71%
14:00 +14°C° 0.8 mm 7 mps 743 mmHg 76%
15:00 +13°C° 0.8 mm 6 mps 743 mmHg 81%
16:00 +12°C° 0.8 mm 4 mps 743 mmHg 86%
17:00 +12°C° 0.1 mm 3 mps 742 mmHg 87%
18:00 +12°C° 0.1 mm 3 mps 742 mmHg 88%
19:00 +12°C° 0.1 mm 3 mps 742 mmHg 89%
20:00 +12°C° 0.1 mm 3 mps 742 mmHg 87%
21:00 +12°C° 0.1 mm 3 mps 742 mmHg 86%
22:00 +11°C° 0.1 mm 3 mps 742 mmHg 84%
23:00 +11°C° 0.8 mm 3 mps 742 mmHg 87%
Show more

We Need Your Consent

Meteoprog and our Service Providers may store and access personal data such as cookies, device identifiers or other similar technologies on your device and process such data to personalise content and ads, as well as provide social media features and to analyse the traffic.

  • Store and/or access information on your device

    Cookies, device identifiers or other information can be stored or accessed on your device for the purposes indicated above.

  • Personalised ads and content, ad and content measurement, audience insights, and products development

    Ads and content can be personalised based on a profile. More data can be added to better personalise ads and content. Ad and content performance can be measured. Insights about the audience who saw the ads and content can be derived. Such data can be used to develop or improve user’s experience, systems and software.

By clicking ‘I Agree’ you will allow the use of indicated cookies, device identifiers, web beacons or other similar technologies. Your settings can be changed in the browser on your device.

For certain purposes, legitimate interests may be relied on, rather than consent. You can read more about this in our Privacy and Cookie Policy.